Location: Herksen
(52.4316°N, 6.1319°E)
Time: 10:33:25
(UTC+00:00)

Cosmos 1437 Rocket - Pass Details

Date: 15 May 2026
Orbit: 439 x 476 km, 81.2° (Epoch: 6 June)

Event Time Altitude Azimuth Distance (km) Brightness Sun altitude
Exits shadow 20:02:32 - 159° (SSE) 2,113 5.3 -5.4°
Reaches altitude 10° 20:03:51 10° 151° (SSE) 1,626 4.6 -5.5°
Maximum altitude 20:06:52 27° 93° (E) 953 3.6 -5.9°
Drops below altitude 10° 20:09:57 10° 34° (NE) 1,655 5.4 -6.2°
Sets 20:12:16 0° 22° (NNE) 2,543 6.5 -6.5°
